Location: Clinton NY
(43.0598°N, 75.3602°W)
Time: 01:47:19
(UTC-04:00)

Amateur Radio Satellites - All Passes

Search period start: 04 September 2015 01:17
Search period end: 05 September 2015 01:17
Location: Clinton NY, 43.0598°N, 75.3602°W

Satellite Date Start Highest point End Downlink Frequencies (MHz)
Time Altitude Azimuth
QB50P1 04 Sep 01:23:18 01:26:43 23° 293° (WNW) 01:30:02 145.935-145.965
RS-15 04 Sep 01:36:00 01:47:49 73° 241° (WSW) 01:59:57 29.354- 29.394
AIST 2 04 Sep 01:37:03 01:40:29 24° 246° (WSW) 01:43:46 435.215
SWISSCUBE 04 Sep 01:38:05 01:42:44 56° 72° (ENE) 01:47:25 437.505
GONETS M04 04 Sep 01:40:16 01:46:54 26° 82° (E) 01:53:52
CUSAT 1 04 Sep 01:40:26 01:43:35 17° 303° (WNW) 01:47:05 437.405
PCSat 04 Sep 01:48:11 01:53:37 89° 110° (ESE) 01:59:05 145.827
SO-50 04 Sep 01:54:08 01:58:34 34° 315° (NW) 02:03:05 436.795
TISAT 1 04 Sep 02:01:47 02:04:24 15° 270° (W) 02:06:53 437.305
ITAMSAT 1 04 Sep 02:13:49 02:15:37 12° 87° (E) 02:17:44 435.822/435.867
Gurwin Techsat 1B 04 Sep 02:14:54 02:18:06 17° 89° (E) 02:21:31 435.225
ITUPSAT 1 04 Sep 02:18:17 02:23:02 65° 259° (WSW) 02:27:48 437.325
BUGSAT 1 04 Sep 02:19:09 02:20:17 11° 298° (WNW) 02:21:11 437.445
Cosmos 2504 04 Sep 02:26:46 02:28:50 11° 311° (NW) 02:30:16 435.465 / 435.565
STARS 04 Sep 02:37:29 02:40:47 21° 66° (ENE) 02:44:12 437.465
Oscar 19 04 Sep 02:44:06 02:49:20 87° 290° (WNW) 02:54:32 437.125/150
BEESAT 04 Sep 02:49:53 02:54:08 31° 264° (W) 02:58:22 436.000
JAS-2 04 Sep 02:53:14 02:58:08 22° 86° (E) 03:02:50 435.910
KKS-1 04 Sep 03:03:43 03:08:07 65° 74° (ENE) 03:12:35 437.445
VERMONT LUNAR 04 Sep 03:07:00 03:09:42 30° 163° (SSE) 03:12:24 437.305
SWISSCUBE 04 Sep 03:17:58 03:21:00 16° 270° (W) 03:23:51 437.505
O/OREOS (USA 219) 04 Sep 03:28:24 03:31:58 22° 54° (NE) 03:35:37 437.305
PCSat 04 Sep 03:34:03 03:37:50 18° 321° (NW) 03:41:29 145.827
GONETS M04 04 Sep 03:34:26 03:43:05 69° 282° (WNW) 03:51:49
MOZHAYETS 4 04 Sep 03:42:15 03:45:57 25° 68° (ENE) 03:49:46
ITAMSAT 1 04 Sep 03:50:42 03:55:54 84° 285° (WNW) 04:01:06 435.822/435.867
RS-15 04 Sep 03:51:12 03:58:37 18° 260° (W) 04:05:13 29.354- 29.394
Gurwin Techsat 1B 04 Sep 03:53:22 03:58:38 66° 288° (WNW) 04:03:53 435.225
Cosmos 2499 04 Sep 03:55:05 04:03:13 52° 90° (E) 04:11:45 435.465 / 435.565
AO-7 04 Sep 04:05:17 04:12:16 30° 94° (E) 04:19:25 29.400- 29.500
HORYU 2 04 Sep 04:06:56 04:09:56 18° 91° (E) 04:13:03 437.375
STARS 04 Sep 04:12:50 04:17:00 39° 263° (W) 04:21:10 437.465
Oscar 19 04 Sep 04:25:39 04:28:00 13° 301° (WNW) 04:30:06 437.125/150
JAS-2 04 Sep 04:37:08 04:44:01 65° 289° (WNW) 04:50:01 435.910
VERMONT LUNAR 04 Sep 04:42:56 04:45:51 52° 180° (S) 04:48:46 437.305
KKS-1 04 Sep 04:43:12 04:45:16 13° 272° (W) 04:47:07 437.445
PHONESAT 2.4 04 Sep 04:57:32 05:00:27 26° 159° (SSE) 05:03:23 2401.200-2431.200
O/OREOS (USA 219) 04 Sep 05:07:16 05:11:38 43° 253° (WSW) 05:15:57 437.305
MOZHAYETS 4 04 Sep 05:18:49 05:23:03 34° 264° (W) 05:27:15
ITAMSAT 1 04 Sep 05:32:33 05:34:41 12° 302° (WNW) 05:36:36 435.822/435.867
GONETS M04 04 Sep 05:37:24 05:42:05 15° 307° (NW) 05:46:15
HORYU 2 04 Sep 05:42:34 05:46:50 44° 289° (WNW) 05:51:02 437.375
CUBESAT XI-V 04 Sep 05:45:20 05:49:37 41° 71° (ENE) 05:53:57 437.345
Cosmos 2499 04 Sep 05:48:43 05:56:42 39° 291° (WNW) 06:04:48 435.465 / 435.565
AO-7 04 Sep 05:57:28 06:05:39 63° 293° (WNW) 06:13:44 29.400- 29.500
Cubesat XI-IV 04 Sep 05:59:37 06:01:26 12° 86° (E) 06:03:35 437.490
PRISM 04 Sep 06:15:14 06:17:23 14° 64° (ENE) 06:19:41 437.425
VERMONT LUNAR 04 Sep 06:19:20 06:22:01 30° 196° (SSW) 06:24:42 437.305
JAS-2 04 Sep 06:24:43 06:27:41 13° 309° (NW) 06:30:13 435.910
PHONESAT 2.4 04 Sep 06:34:41 06:38:01 54° 175° (S) 06:41:22 2401.200-2431.200
CUTE-I 04 Sep 06:41:18 06:45:55 30° 95° (E) 06:50:36 437.470
AIST 1 04 Sep 06:50:56 06:51:38 10° 85° (E) 06:52:35
YUBILEINY 04 Sep 06:59:38 07:06:54 29° 65° (ENE) 07:14:22 435.215
STRAND 1 04 Sep 07:02:25 07:07:28 69° 74° (ENE) 07:12:34 437.568
SO-50 04 Sep 07:05:31 07:06:49 11° 26° (NNE) 07:08:16 436.795
CUBESAT XI-V 04 Sep 07:23:46 07:27:15 21° 268° (W) 07:30:39 437.345
Cubesat XI-IV 04 Sep 07:37:00 07:42:21 87° 287° (WNW) 07:47:43 437.490
BRITE-PL 04 Sep 07:44:38 07:49:17 27° 92° (E) 07:54:07 437.365/2234.400
PRISM 04 Sep 07:48:26 07:52:25 52° 260° (W) 07:56:26 437.425
Cosmos 2491 04 Sep 07:51:12 07:57:52 27° 82° (E) 08:04:49 435.465 / 435.565
AO-7 04 Sep 07:52:19 07:56:58 16° 314° (NW) 08:01:15 29.400- 29.500
DOVE 4 04 Sep 07:53:01 07:53:55 11° 83° (E) 07:55:13 437.250
GOMX 1 04 Sep 07:55:11 07:59:06 20° 89° (E) 08:03:11 467.674
ISS 04 Sep 08:02:37 08:05:48 54° 143° (SE) 08:09:01 145.825
PHONESAT 2.4 04 Sep 08:12:26 08:15:42 43° 192° (SSW) 08:18:56 2401.200-2431.200
CUTE-I 04 Sep 08:21:12 08:26:05 37° 292° (WNW) 08:30:54 437.470
Cosmos 2504 04 Sep 08:22:18 08:25:07 12° 51° (NE) 08:28:27 435.465 / 435.565
AIST 1 04 Sep 08:24:32 08:28:45 65° 280° (W) 08:33:00
CUTE 1.7 + AOD 2 04 Sep 08:43:29 08:46:25 19° 91° (E) 08:49:27 437.475
SO-50 04 Sep 08:43:59 08:48:43 43° 48° (NE) 08:53:22 436.795
STRAND 1 04 Sep 08:44:24 08:47:17 15° 272° (W) 08:49:56 437.568
CUSAT 1 04 Sep 08:49:10 08:52:53 14° 55° (NE) 08:57:11 437.405
PCSat 04 Sep 08:52:53 08:56:22 17° 38° (NE) 08:59:59 145.827
YUBILEINY 04 Sep 08:55:48 09:04:34 67° 267° (W) 09:13:13 435.215
CANX-2 04 Sep 08:57:33 09:01:14 29° 95° (E) 09:04:57 2200.000
HO-68 04 Sep 09:00:24 09:07:00 38° 96° (E) 09:13:39 435.675
SEEDS 04 Sep 09:12:09 09:15:50 30° 95° (E) 09:19:32 437.485
CUBEBUG 2 04 Sep 09:12:43 09:13:53 11° 85° (E) 09:15:20 437.445
Cubesat XI-IV 04 Sep 09:19:14 09:21:46 13° 302° (WNW) 09:24:02 437.490
BRITE-PL 04 Sep 09:22:38 09:27:57 46° 289° (WNW) 09:33:21 437.365/2234.400
DOVE 4 04 Sep 09:27:13 09:32:35 84° 101° (E) 09:37:50 437.250
COMPASS 1 04 Sep 09:27:34 09:31:22 34° 96° (E) 09:35:10 437.405
AUBIESAT-1 04 Sep 09:30:24 09:33:26 18° 60° (ENE) 09:36:33 437.475
GOMX 1 04 Sep 09:32:13 09:37:37 58° 287° (WNW) 09:42:59 467.674
AAUSAT CUBESAT 2 04 Sep 09:34:22 09:38:08 34° 96° (E) 09:41:56 437.432
M-CUBED/EXP-1 PRIME 04 Sep 09:38:41 09:42:28 25° 62° (ENE) 09:46:16 437.505
Oscar 11 04 Sep 09:39:09 09:42:03 18° 91° (E) 09:45:04 145.826/435.025
ISS 04 Sep 09:39:29 09:42:22 28° 340° (NNW) 09:45:16 145.825
DANDE 04 Sep 09:43:17 09:49:13 24° 63° (ENE) 09:55:53 436.750
UNISAT 6 04 Sep 09:44:18 09:47:57 23° 67° (ENE) 09:51:43 437.425
CINEMA 3 04 Sep 09:45:06 09:50:01 56° 99° (E) 09:54:46 145.822/145.860
Cosmos 2491 04 Sep 09:45:25 09:54:05 68° 282° (WNW) 10:02:47 435.465 / 435.565
PHONESAT 2.4 04 Sep 09:50:56 09:53:07 16° 207° (SSW) 09:55:14 2401.200-2431.200
DUCHIFAT 1 04 Sep 10:08:23 10:10:20 13° 63° (ENE) 10:12:28 145.980
POLYITAN 1 04 Sep 10:10:01 10:12:21 15° 64° (ENE) 10:14:53 437.675
TIGRISAT 04 Sep 10:10:26 10:14:47 39° 71° (ENE) 10:19:12 435.000
POPSAT HIP 1 04 Sep 10:11:03 10:13:23 15° 64° (ENE) 10:15:52 437.405
Cosmos 2504 04 Sep 10:11:22 10:19:43 59° 76° (ENE) 10:27:33 435.465 / 435.565
CUTE 1.7 + AOD 2 04 Sep 10:18:35 10:22:31 38° 289° (WNW) 10:26:24 437.475
SO-50 04 Sep 10:24:56 10:29:05 27° 246° (WSW) 10:33:03 436.795
NANOSAT C BR1 04 Sep 10:26:02 10:29:09 21° 67° (ENE) 10:32:23 145.865
QB50P2 04 Sep 10:27:57 10:31:15 23° 67° (ENE) 10:34:40 145.880/145.840
ANTELSAT 04 Sep 10:28:52 10:33:30 63° 74° (ENE) 10:38:11 437.575/2403.000
CUSAT 1 04 Sep 10:29:16 10:37:08 61° 75° (ENE) 10:45:14 437.405
ZACube-1 04 Sep 10:29:54 10:34:08 41° 97° (E) 10:38:17 437.345
FUNcube-1 04 Sep 10:33:27 10:37:43 44° 98° (E) 10:41:53 145.935
CANX-2 04 Sep 10:33:35 10:37:05 25° 291° (WNW) 10:40:29 2200.000
PCSat 04 Sep 10:35:12 10:40:40 85° 59° (ENE) 10:46:06 145.827
QB50P1 04 Sep 10:40:45 10:44:25 29° 69° (ENE) 10:48:10 145.935-145.965
HUMSAT D 04 Sep 10:43:21 10:46:37 22° 93° (E) 10:49:56 437.325/437.525
UWE-3 04 Sep 10:45:22 10:49:58 82° 101° (ESE) 10:54:24 435.000/436.395/437.385
CUBEBUG 2 04 Sep 10:46:35 10:51:17 76° 284° (WNW) 10:55:46 437.445
HO-68 04 Sep 10:48:04 10:54:50 44° 295° (WNW) 11:01:30 435.675
SEEDS 04 Sep 10:48:06 10:51:31 24° 292° (WNW) 10:54:50 437.485
YUBILEINY 04 Sep 10:56:23 10:59:51 12° 286° (WNW) 11:02:37 435.215
AUBIESAT-1 04 Sep 11:03:04 11:07:46 61° 254° (WSW) 11:12:19 437.475
COMPASS 1 04 Sep 11:03:40 11:06:50 21° 293° (WNW) 11:09:54 437.405
DELFI C3 04 Sep 11:05:55 11:09:55 75° 285° (WNW) 11:13:53 145.870
DOVE 4 04 Sep 11:06:39 11:09:39 15° 299° (WNW) 11:12:26 437.250
AAUSAT CUBESAT 2 04 Sep 11:10:25 11:13:33 21° 293° (WNW) 11:16:35 437.432
M-CUBED/EXP-1 PRIME 04 Sep 11:12:27 11:17:01 42° 257° (WSW) 11:21:28 437.505
DX 1 04 Sep 11:13:13 11:16:51 26° 94° (E) 11:20:34 434.975-435.025
Oscar 11 04 Sep 11:14:23 11:18:28 42° 288° (WNW) 11:22:30 145.826/435.025
ISS 04 Sep 11:17:13 11:19:32 18° 0° (N) 11:21:51 145.825
50 SAT 04 Sep 11:17:35 11:20:29 20° 93° (E) 11:23:25 437.505
UKube-1 04 Sep 11:19:34 11:23:14 27° 95° (E) 11:26:57 .
UNISAT 6 04 Sep 11:20:05 11:24:31 40° 263° (W) 11:28:57 437.425
CINEMA 3 04 Sep 11:23:16 11:26:46 19° 296° (WNW) 11:30:04 145.822/145.860
DANDE 04 Sep 11:25:18 11:33:12 85° 261° (W) 11:41:47 436.750
BUGSAT 1 04 Sep 11:31:47 11:35:49 62° 74° (ENE) 11:39:56 437.445
CUBEBUG 1 04 Sep 11:39:45 11:43:02 20° 92° (E) 11:46:24 437.445
DUCHIFAT 1 04 Sep 11:41:27 11:45:39 63° 259° (W) 11:49:54 145.980
POLYITAN 1 04 Sep 11:43:38 11:47:50 56° 260° (W) 11:52:06 437.675
POPSAT HIP 1 04 Sep 11:44:38 11:48:49 56° 260° (W) 11:53:04 437.405
TIGRISAT 04 Sep 11:47:55 11:51:40 23° 268° (W) 11:55:21 435.000
Cosmos 2491 04 Sep 11:48:28 11:53:05 14° 307° (NW) 11:57:12 435.465 / 435.565
GONETS M04 04 Sep 11:49:09 11:52:58 14° 52° (NE) 11:57:23
AISAT 04 Sep 11:50:46 11:55:04 43° 98° (E) 11:59:22 437.250
ESTCUBE 1 04 Sep 11:52:11 11:56:16 33° 96° (E) 12:00:22 437.505/2401.250
NANOSAT C BR1 04 Sep 12:00:47 12:04:45 37° 263° (W) 12:08:45 145.865
QB50P2 04 Sep 12:03:04 12:06:58 34° 264° (W) 12:10:53 145.880/145.840
Cosmos 2504 04 Sep 12:04:21 12:11:26 30° 277° (W) 12:17:58 435.465 / 435.565
ZACube-1 04 Sep 12:06:54 12:10:13 20° 294° (WNW) 12:13:22 437.345
ANTELSAT 04 Sep 12:08:05 12:10:45 14° 272° (W) 12:13:13 437.575/2403.000
FUNcube-1 04 Sep 12:10:32 12:13:44 19° 295° (WNW) 12:16:46 145.935
CUSAT 1 04 Sep 12:12:23 12:19:23 33° 272° (W) 12:26:18 437.405
QB50P1 04 Sep 12:16:42 12:20:17 25° 266° (W) 12:23:49 145.935-145.965
VELOX 1 04 Sep 12:17:40 12:22:11 81° 103° (ESE) 12:26:39 145.980
HUMSAT D 04 Sep 12:18:37 12:22:26 32° 290° (WNW) 12:26:08 437.325/437.525
PCSat 04 Sep 12:20:45 12:23:26 13° 256° (WSW) 12:25:50 145.827
UWE-3 04 Sep 12:24:09 12:25:51 12° 299° (WNW) 12:27:19 435.000/436.395/437.385
Oscar 19 04 Sep 12:24:25 12:28:05 21° 63° (ENE) 12:31:55 437.125/150
DX 1 04 Sep 12:49:14 12:53:07 31° 291° (WNW) 12:56:57 434.975-435.025
50 SAT 04 Sep 12:51:40 12:55:02 29° 290° (WNW) 12:58:22 437.505
ISS 04 Sep 12:53:44 12:56:40 30° 20° (NNE) 12:59:36 145.825
SPROUT 04 Sep 12:55:07 12:59:14 40° 98° (E) 13:03:20 437.525
UKube-1 04 Sep 12:55:34 12:59:21 29° 292° (WNW) 13:03:04 .
JAS-2 04 Sep 13:07:01 13:11:09 16° 54° (NE) 13:15:37 435.910
DANDE 04 Sep 13:10:10 13:15:38 19° 276° (W) 13:20:57 436.750
BUGSAT 1 04 Sep 13:10:25 13:11:47 11° 272° (W) 13:12:56 437.445
CUBEBUG 1 04 Sep 13:15:24 13:19:33 39° 289° (WNW) 13:23:39 437.445
AO-7 04 Sep 13:19:41 13:21:56 12° 41° (NE) 13:24:38 29.400- 29.500
AISAT 04 Sep 13:28:02 13:31:21 20° 295° (WNW) 13:34:33 437.250
ESTCUBE 1 04 Sep 13:29:17 13:33:01 25° 293° (WNW) 13:36:39 437.505/2401.250
ITAMSAT 1 04 Sep 13:31:51 13:35:42 22° 64° (ENE) 13:39:41 435.822/435.867
Gurwin Techsat 1B 04 Sep 13:36:29 13:40:59 30° 66° (ENE) 13:45:34 435.225
SWISSCUBE 04 Sep 13:39:09 13:41:18 13° 88° (E) 13:43:41 437.505
TISAT 1 04 Sep 13:43:03 13:47:21 77° 102° (ESE) 13:51:37 437.305
GONETS M04 04 Sep 13:43:21 13:52:06 65° 77° (ENE) 14:00:53
Cosmos 2499 04 Sep 13:46:33 13:52:20 20° 58° (ENE) 13:58:14 435.465 / 435.565
RS-15 04 Sep 13:55:21 14:00:15 15° 98° (E) 14:06:07 29.354- 29.394
VELOX 1 04 Sep 13:56:28 13:58:08 12° 299° (WNW) 13:59:35 145.980
Oscar 19 04 Sep 14:01:59 14:07:04 56° 260° (W) 14:12:12 437.125/150
BEESAT 3 04 Sep 14:12:25 14:16:19 49° 119° (ESE) 14:20:16 437.485
ITUPSAT 1 04 Sep 14:18:12 14:22:20 29° 95° (E) 14:26:31 437.325
ISS 04 Sep 14:30:03 14:33:12 48° 219° (SW) 14:36:20 145.825
BEESAT 2 04 Sep 14:30:29 14:34:30 57° 120° (ESE) 14:38:33 435.950
SPROUT 04 Sep 14:31:50 14:35:03 20° 294° (WNW) 14:38:08 437.525
JAS-2 04 Sep 14:47:16 14:54:58 67° 72° (ENE) 15:02:43 435.910
BEESAT 04 Sep 14:48:23 14:53:06 60° 101° (E) 14:57:49 436.000
KKS-1 04 Sep 14:56:03 14:57:32 12° 87° (E) 14:59:16 437.445
AO-7 04 Sep 15:05:03 15:12:49 47° 62° (ENE) 15:20:41 29.400- 29.500
HORYU 2 04 Sep 15:06:09 15:09:24 20° 65° (ENE) 15:12:45 437.375
ITAMSAT 1 04 Sep 15:09:53 15:14:55 50° 260° (W) 15:19:57 435.822/435.867
SWISSCUBE 04 Sep 15:14:59 15:19:43 68° 286° (WNW) 15:24:27 437.505
Gurwin Techsat 1B 04 Sep 15:15:56 15:20:52 38° 263° (W) 15:25:47 435.225
TISAT 1 04 Sep 15:21:07 15:22:33 11° 298° (WNW) 15:23:46 437.305
AIST 2 04 Sep 15:34:40 15:38:48 54° 120° (ESE) 15:42:58 435.215
Cosmos 2499 04 Sep 15:38:22 15:47:03 89° 81° (E) 15:55:03 435.465 / 435.565
GONETS M04 04 Sep 15:41:08 15:48:24 29° 277° (W) 15:55:24
BEESAT 3 04 Sep 15:51:23 15:54:30 20° 318° (NW) 15:57:34 437.485
ITUPSAT 1 04 Sep 15:56:00 16:00:13 31° 292° (WNW) 16:04:22 437.325
RS-15 04 Sep 15:59:55 16:10:41 70° 118° (ESE) 16:21:58 29.354- 29.394
STARS 04 Sep 16:01:24 16:05:26 34° 96° (E) 16:09:30 437.465
BEESAT 2 04 Sep 16:09:55 16:12:53 19° 319° (NW) 16:15:48 435.950
BEESAT 04 Sep 16:27:28 16:30:31 17° 297° (WNW) 16:33:24 436.000
KKS-1 04 Sep 16:30:15 16:34:45 70° 286° (WNW) 16:39:12 437.445
JAS-2 04 Sep 16:33:57 16:40:31 28° 270° (W) 16:46:57 435.910
HORYU 2 04 Sep 16:41:28 16:45:46 43° 262° (W) 16:50:03 437.375
AO-7 04 Sep 16:57:51 17:05:43 43° 262° (W) 17:13:31 29.400- 29.500
MOZHAYETS 4 04 Sep 17:12:27 17:16:54 50° 99° (E) 17:21:20
AIST 2 04 Sep 17:14:26 17:17:41 20° 318° (NW) 17:20:52 435.215
Cubesat XI-IV 04 Sep 17:21:34 17:25:40 24° 64° (ENE) 17:29:54 437.490
Cosmos 2499 04 Sep 17:33:27 17:39:03 19° 282° (WNW) 17:44:01 435.465 / 435.565
STARS 04 Sep 17:38:07 17:41:44 24° 293° (WNW) 17:45:16 437.465
O/OREOS (USA 219) 04 Sep 17:42:20 17:45:29 19° 102° (ESE) 17:48:47 437.305
Cosmos 2491 04 Sep 18:00:15 18:04:01 14° 53° (NE) 18:08:22 435.465 / 435.565
CUTE-I 04 Sep 18:03:58 18:09:06 54° 71° (ENE) 18:14:18 437.470
RS-15 04 Sep 18:13:38 18:24:01 42° 324° (NW) 18:34:45 29.354- 29.394
AIST 1 04 Sep 18:30:43 18:34:37 32° 75° (ENE) 18:38:34
MOZHAYETS 4 04 Sep 18:50:39 18:53:47 18° 295° (WNW) 18:56:46
BRITE-PL 04 Sep 18:56:59 19:00:48 28° 67° (ENE) 19:04:57 437.365/2234.400
DOVE 4 04 Sep 18:59:24 19:01:07 12° 59° (ENE) 19:03:08 437.250
Cubesat XI-IV 04 Sep 19:00:21 19:05:30 49° 261° (W) 19:10:39 437.490
GOMX 1 04 Sep 19:04:39 19:08:06 21° 64° (ENE) 19:11:51 467.674
STRAND 1 04 Sep 19:12:43 19:16:33 22° 92° (E) 19:20:30 437.568
CUBESAT XI-V 04 Sep 19:17:49 19:22:30 89° 271° (W) 19:27:10 437.345
O/OREOS (USA 219) 04 Sep 19:20:14 19:24:36 44° 299° (WNW) 19:29:01 437.305
PRISM 04 Sep 19:30:14 19:33:08 19° 93° (E) 19:36:08 437.425
HO-68 04 Sep 19:30:20 19:36:28 33° 61° (ENE) 19:42:45 435.675
CUTE 1.7 + AOD 2 04 Sep 19:37:47 19:40:24 17° 65° (ENE) 19:43:10 437.475
CUTE-I 04 Sep 19:45:39 19:49:35 20° 269° (W) 19:53:23 437.470
CANX-2 04 Sep 19:51:31 19:54:59 25° 69° (ENE) 19:58:33 2200.000
Cosmos 2491 04 Sep 19:54:26 20:03:09 65° 78° (ENE) 20:11:53 435.465 / 435.565
YUBILEINY 04 Sep 20:02:28 20:09:40 31° 84° (E) 20:17:08 435.215
SEEDS 04 Sep 20:05:12 20:08:39 25° 69° (ENE) 20:12:09 437.485
AIST 1 04 Sep 20:08:43 20:12:08 22° 271° (W) 20:15:26
CUBEBUG 2 04 Sep 20:11:45 20:13:38 13° 61° (ENE) 20:15:45 437.445
COMPASS 1 04 Sep 20:19:41 20:23:14 28° 69° (ENE) 20:26:50 437.405
AAUSAT CUBESAT 2 04 Sep 20:26:02 20:29:33 27° 69° (ENE) 20:33:08 437.432
RS-15 04 Sep 20:31:45 20:40:37 25° 357° (N) 20:49:45 29.354- 29.394
DOVE 4 04 Sep 20:33:21 20:38:05 89° 68° (ENE) 20:43:09 437.250
BRITE-PL 04 Sep 20:35:13 20:39:15 32° 266° (W) 20:43:33 437.365/2234.400
Oscar 11 04 Sep 20:35:17 20:38:03 17° 65° (ENE) 20:40:56 145.826/435.025
GOMX 1 04 Sep 20:41:24 20:45:52 47° 263° (W) 20:50:41 467.674
CINEMA 3 04 Sep 20:47:09 20:51:50 56° 73° (ENE) 20:56:43 145.822/145.860
STRAND 1 04 Sep 20:51:08 20:56:03 48° 289° (WNW) 21:00:56 437.568
CUBESAT XI-V 04 Sep 20:57:58 20:59:18 11° 299° (WNW) 21:00:23 437.345
PRISM 04 Sep 21:04:54 21:08:43 37° 290° (WNW) 21:12:30 437.425
CUTE 1.7 + AOD 2 04 Sep 21:11:48 21:15:58 48° 261° (W) 21:20:08 437.475
HO-68 04 Sep 21:16:57 21:23:56 53° 260° (W) 21:30:57 435.675
ZACube-1 04 Sep 21:26:20 21:30:33 38° 71° (ENE) 21:34:51 437.345
CANX-2 04 Sep 21:27:00 21:30:49 30° 265° (W) 21:34:36 2200.000
FUNcube-1 04 Sep 21:29:37 21:33:52 40° 71° (ENE) 21:38:12 145.935
HUMSAT D 04 Sep 21:36:10 21:39:12 20° 66° (ENE) 21:42:23 437.325/437.525
SEEDS 04 Sep 21:40:34 21:44:20 30° 265° (W) 21:48:03 437.485
UWE-3 04 Sep 21:42:42 21:47:20 74° 75° (ENE) 21:52:03 435.000/436.395/437.385
CUBEBUG 2 04 Sep 21:44:58 21:49:41 83° 258° (WSW) 21:54:30 437.445
Cosmos 2491 04 Sep 21:52:15 21:59:27 28° 277° (W) 22:06:23 435.465 / 435.565
DELFI C3 04 Sep 21:53:24 21:57:26 73° 76° (ENE) 22:01:28 145.870
COMPASS 1 04 Sep 21:55:17 21:58:52 26° 266° (W) 22:02:24 437.405
YUBILEINY 04 Sep 21:57:20 22:06:01 61° 283° (WNW) 22:14:46 435.215
AAUSAT CUBESAT 2 04 Sep 22:01:33 22:05:07 26° 266° (W) 22:08:37 437.432
50 SAT 04 Sep 22:02:40 22:04:49 15° 65° (ENE) 22:07:06 437.505
Oscar 11 04 Sep 22:09:40 22:13:53 48° 261° (W) 22:18:07 145.826/435.025
DX 1 04 Sep 22:09:51 22:13:24 26° 67° (ENE) 22:17:03 434.975-435.025
UKube-1 04 Sep 22:15:21 22:18:56 26° 68° (ENE) 22:22:36 .
DOVE 4 04 Sep 22:16:06 22:16:46 10° 277° (W) 22:17:05 437.250
ANTELSAT 04 Sep 22:22:14 22:23:50 12° 87° (E) 22:25:41 437.575/2403.000
CINEMA 3 04 Sep 22:26:14 22:29:28 17° 272° (W) 22:32:35 145.822/145.860
BEESAT 3 04 Sep 22:29:53 22:33:43 40° 50° (NE) 22:37:30 437.485
CUBEBUG 1 04 Sep 22:37:11 22:40:15 20° 66° (ENE) 22:43:28 437.445
Cosmos 2504 04 Sep 22:41:51 22:49:27 44° 88° (E) 22:57:30 435.465 / 435.565
RS-15 04 Sep 22:47:12 22:57:37 36° 31° (NNE) 23:08:36 29.354- 29.394
BEESAT 2 04 Sep 22:48:36 22:52:32 47° 51° (NE) 22:56:26 435.950
AISAT 04 Sep 22:49:17 22:53:27 43° 71° (ENE) 22:57:42 437.250
ESTCUBE 1 04 Sep 22:52:44 22:56:46 35° 70° (ENE) 23:00:52 437.505/2401.250
M-CUBED/EXP-1 PRIME 04 Sep 22:55:25 22:56:13 11° 92° (E) 22:57:11 437.505
ZACube-1 04 Sep 23:03:24 23:07:02 22° 268° (W) 23:10:37 437.345
SO-50 04 Sep 23:03:28 23:03:53 10° 107° (ESE) 23:04:36 436.795
FUNcube-1 04 Sep 23:06:48 23:10:21 21° 268° (W) 23:13:50 145.935
HUMSAT D 04 Sep 23:10:34 23:14:40 41° 262° (W) 23:18:48 437.325/437.525
UNISAT 6 04 Sep 23:11:06 23:15:21 39° 97° (E) 23:19:32 437.425
VELOX 1 04 Sep 23:15:53 23:20:17 81° 77° (ENE) 23:24:45 145.980
UWE-3 04 Sep 23:22:34 23:24:28 12° 274° (W) 23:26:07 435.000/436.395/437.385
DUCHIFAT 1 04 Sep 23:25:54 23:28:56 19° 92° (E) 23:32:05 145.980
POLYITAN 1 04 Sep 23:28:36 23:31:55 22° 93° (E) 23:35:19 437.675
POPSAT HIP 1 04 Sep 23:29:22 23:32:41 22° 93° (E) 23:36:03 437.405
50 SAT 04 Sep 23:35:08 23:38:59 47° 261° (W) 23:42:49 437.505
CUSAT 1 04 Sep 23:37:23 23:41:31 47° 92° (E) 23:47:05 437.405
TIGRISAT 04 Sep 23:37:37 23:42:11 74° 102° (ESE) 23:46:35 435.000
NANOSAT C BR1 04 Sep 23:44:33 23:48:22 31° 96° (E) 23:52:11 145.865
DX 1 04 Sep 23:45:43 23:49:34 30° 264° (W) 23:53:24 434.975-435.025
QB50P2 04 Sep 23:47:05 23:51:02 35° 97° (E) 23:54:59 145.880/145.840
SPROUT 04 Sep 23:50:05 23:53:59 35° 71° (ENE) 23:57:57 437.525
UKube-1 04 Sep 23:51:12 23:54:59 29° 264° (W) 23:58:45 .
AIST 2 04 Sep 23:55:29 23:59:32 47° 51° (NE) 00:03:33 435.215
ANTELSAT 04 Sep 23:56:42 00:01:14 68° 286° (WNW) 00:05:36 437.575/2403.000
QB50P1 04 Sep 23:59:56 00:04:06 47° 98° (E) 00:08:14 145.935-145.965
YUBILEINY 05 Sep 00:01:28 00:05:19 13° 309° (NW) 00:08:33 435.215
BEESAT 3 05 Sep 00:08:24 00:11:23 20° 247° (WSW) 00:14:15 437.485
CUBEBUG 1 05 Sep 00:12:17 00:16:22 40° 262° (W) 00:20:29 437.445
AUBIESAT-1 05 Sep 00:17:50 00:21:41 86° 291° (WNW) 00:25:12 437.475
AISAT 05 Sep 00:27:09 00:30:17 18° 269° (W) 00:33:18 437.250
BEESAT 2 05 Sep 00:27:32 00:30:15 17° 248° (WSW) 00:32:49 435.950
M-CUBED/EXP-1 PRIME 05 Sep 00:27:45 00:31:34 53° 292° (WNW) 00:35:02 437.505
ESTCUBE 1 05 Sep 00:30:06 00:33:44 23° 267° (W) 00:37:17 437.505/2401.250
Cosmos 2504 05 Sep 00:33:53 00:41:44 43° 288° (WNW) 00:49:49 435.465 / 435.565
TISAT 1 05 Sep 00:35:43 00:39:53 64° 74° (ENE) 00:44:06 437.305
DANDE 05 Sep 00:38:41 00:42:33 70° 283° (WNW) 00:47:51 436.750
SO-50 05 Sep 00:38:53 00:43:41 83° 123° (ESE) 00:48:39 436.795
SWISSCUBE 05 Sep 00:46:25 00:49:36 19° 64° (ENE) 00:52:55 437.505
BUGSAT 1 05 Sep 00:48:05 00:52:22 85° 284° (WNW) 00:56:39 437.445
UNISAT 6 05 Sep 00:48:24 00:51:53 21° 294° (WNW) 00:55:13 437.425
GONETS M04 05 Sep 00:54:59 00:58:18 13° 75° (ENE) 01:02:16
DUCHIFAT 1 05 Sep 01:00:54 01:04:55 39° 289° (WNW) 01:08:52 145.980
POLYITAN 1 05 Sep 01:03:59 01:07:55 34° 290° (WNW) 01:11:47 437.675
POPSAT HIP 1 05 Sep 01:04:42 01:08:38 34° 290° (WNW) 01:12:30 437.405
